Location: Little Maitland River
(43.8022°N, 81.1549°W)
Time: 21:43:15
(UTC+00:00)

Meteor 2-20 Rocket - Pass Details

Date: 09 December 2025
Orbit: 871 x 1024 km, 82.5° (Epoch: 21 January)

Event Time Altitude Azimuth Distance (km) Brightness Sun altitude
Rises 11:29:51 0° 348° (NNW) 3,507 7.1 -13.4°
Reaches altitude 10° 11:32:20 10° 345° (NNW) 2,550 6.4 -13.0°
Maximum altitude 11:37:59 60° 267° (W) 991 4.3 -12.0°
Drops below altitude 10° 11:43:34 10° 188° (S) 2,513 6.8 -11.1°
Sets 11:46:00 0° 185° (S) 3,452 7.6 -10.7°
